When you browse on this site, cookies collect data to enhance your experience and personalize the content and advertising you see.
Visit our Privacy Policy to learn more. By continuing to use the site, you agree to this use of cookies and data.
  • en Suisse
  • Liste des pays
  • À 7 jours
  • Température de l'eau
  • Carte météo
  • Widgets météo
  • user-avatar
    Se connecter

    Météo par heure à Stepanakert

    Ce jour, 1 Juin, Lundi

    Heure Température Précipitation Vent Pression Humidité
    00:00 +18°C° 0 mm 1 m/s 691 mmHg 78%
    01:00 +18°C° 0 mm 1 m/s 691 mmHg 79%
    02:00 +18°C° 0 mm 1 m/s 691 mmHg 79%
    03:00 +16°C° 0 mm 1 m/s 691 mmHg 80%
    04:00 +18°C° 0 mm 1 m/s 691 mmHg 78%
    05:00 +19°C° 0 mm 1 m/s 691 mmHg 76%
    06:00 +19°C° 0 mm 1 m/s 691 mmHg 74%
    07:00 +21°C° 0 mm 1 m/s 691 mmHg 70%
    08:00 +21°C° 0 mm 2 m/s 692 mmHg 66%
    09:00 +24°C° 0 mm 2 m/s 692 mmHg 61%
    10:00 +25°C° 0 mm 2 m/s 691 mmHg 59%
    11:00 +25°C° 0 mm 2 m/s 691 mmHg 57%
    12:00 +26°C° 0 mm 3 m/s 691 mmHg 55%
    13:00 +27°C° 0 mm 2 m/s 691 mmHg 55%
    14:00 +27°C° 0 mm 2 m/s 690 mmHg 54%
    15:00 +27°C° 0 mm 2 m/s 690 mmHg 54%
    16:00 +27°C° 0 mm 2 m/s 689 mmHg 57%
    17:00 +26°C° 0 mm 2 m/s 689 mmHg 61%
    18:00 +25°C° 0 mm 1 m/s 689 mmHg 64%
    19:00 +24°C° 0 mm 1 m/s 689 mmHg 68%
    20:00 +22°C° 0 mm 1 m/s 689 mmHg 71%
    21:00 +20°C° 0 mm 1 m/s 689 mmHg 75%
    22:00 +19°C° 0 mm 2 m/s 689 mmHg 72%
    23:00 +19°C° 0 mm 2 m/s 689 mmHg 69%

    Demain, 2 Juin, Mardi

    Heure Température Précipitation Vent Pression Humidité
    00:00 +19°C° 0 mm 2 m/s 689 mmHg 66%
    01:00 +19°C° 0 mm 2 m/s 689 mmHg 64%
    02:00 +19°C° 0 mm 2 m/s 688 mmHg 62%
    03:00 +18°C° 0 mm 2 m/s 688 mmHg 61%
    04:00 +19°C° 0 mm 2 m/s 688 mmHg 59%
    05:00 +20°C° 0 mm 2 m/s 689 mmHg 58%
    06:00 +22°C° 0 mm 1 m/s 689 mmHg 57%
    07:00 +24°C° 0 mm 1 m/s 689 mmHg 52%
    08:00 +26°C° 0 mm 1 m/s 689 mmHg 48%
    09:00 +28°C° 0 mm 1 m/s 689 mmHg 43%
    10:00 +29°C° 0 mm 2 m/s 689 mmHg 41%
    11:00 +30°C° 0 mm 2 m/s 689 mmHg 40%
    12:00 +31°C° 0 mm 2 m/s 689 mmHg 38%
    13:00 +31°C° 0 mm 3 m/s 689 mmHg 39%
    14:00 +31°C° 0 mm 3 m/s 688 mmHg 39%
    15:00 +31°C° 0 mm 3 m/s 688 mmHg 40%
    16:00 +30°C° 0.2 mm 3 m/s 687 mmHg 47%
    17:00 +28°C° 0.2 mm 3 m/s 687 mmHg 53%
    18:00 +27°C° 0.2 mm 3 m/s 687 mmHg 60%
    19:00 +25°C° 0.2 mm 2 m/s 687 mmHg 65%
    20:00 +23°C° 0.2 mm 2 m/s 687 mmHg 69%
    21:00 +21°C° 0.2 mm 1 m/s 687 mmHg 74%
    22:00 +20°C° 0 mm 2 m/s 687 mmHg 73%
    23:00 +19°C° 0 mm 2 m/s 687 mmHg 73%

    Après-demain, 3 Juin, Mercredi

    Heure Température Précipitation Vent Pression Humidité
    00:00 +19°C° 0 mm 2 m/s 687 mmHg 72%
    01:00 +19°C° 0 mm 2 m/s 686 mmHg 71%
    02:00 +19°C° 0 mm 2 m/s 686 mmHg 71%
    03:00 +19°C° 0 mm 2 m/s 686 mmHg 70%
    04:00 +19°C° 0 mm 2 m/s 687 mmHg 69%
    05:00 +21°C° 0 mm 1 m/s 687 mmHg 69%
    06:00 +22°C° 0 mm 1 m/s 687 mmHg 68%
    07:00 +23°C° 0 mm 1 m/s 687 mmHg 62%
    08:00 +25°C° 0 mm 1 m/s 687 mmHg 56%
    09:00 +27°C° 0 mm 1 m/s 688 mmHg 50%
    10:00 +28°C° 0 mm 2 m/s 688 mmHg 45%
    11:00 +30°C° 0 mm 2 m/s 688 mmHg 41%
    12:00 +31°C° 0 mm 3 m/s 688 mmHg 36%
    13:00 +31°C° 0 mm 3 m/s 688 mmHg 35%
    14:00 +31°C° 0 mm 2 m/s 687 mmHg 35%
    15:00 +31°C° 0 mm 2 m/s 687 mmHg 34%
    16:00 +30°C° 0 mm 2 m/s 687 mmHg 41%
    17:00 +28°C° 0 mm 2 m/s 687 mmHg 47%
    18:00 +26°C° 0 mm 2 m/s 687 mmHg 54%
    19:00 +25°C° 0 mm 2 m/s 687 mmHg 55%
    20:00 +23°C° 0 mm 2 m/s 687 mmHg 56%
    21:00 +21°C° 0 mm 2 m/s 687 mmHg 57%
    22:00 +21°C° 0 mm 2 m/s 687 mmHg 55%
    23:00 +21°C° 0 mm 2 m/s 688 mmHg 53%

    4 Juin, Jeudi

    Heure Température Précipitation Vent Pression Humidité
    00:00 +20°C° 0 mm 2 m/s 688 mmHg 51%
    01:00 +20°C° 0 mm 2 m/s 688 mmHg 50%
    02:00 +19°C° 0 mm 2 m/s 689 mmHg 49%
    03:00 +19°C° 0 mm 2 m/s 689 mmHg 48%
    04:00 +19°C° 0 mm 2 m/s 689 mmHg 50%
    05:00 +20°C° 0 mm 2 m/s 690 mmHg 52%
    06:00 +20°C° 0 mm 2 m/s 690 mmHg 54%
    07:00 +23°C° 0 mm 2 m/s 691 mmHg 50%
    08:00 +25°C° 0 mm 2 m/s 691 mmHg 47%
    09:00 +26°C° 0 mm 2 m/s 691 mmHg 43%
    10:00 +27°C° 0 mm 2 m/s 691 mmHg 42%
    11:00 +28°C° 0 mm 3 m/s 691 mmHg 41%
    12:00 +29°C° 0 mm 4 m/s 692 mmHg 40%
    13:00 +29°C° 0 mm 4 m/s 691 mmHg 39%
    14:00 +29°C° 0 mm 4 m/s 691 mmHg 38%
    15:00 +29°C° 0 mm 4 m/s 691 mmHg 38%
    16:00 +28°C° 0 mm 3 m/s 690 mmHg 45%
    17:00 +27°C° 0 mm 3 m/s 690 mmHg 53%
    18:00 +25°C° 0 mm 2 m/s 690 mmHg 61%
    19:00 +23°C° 0 mm 2 m/s 690 mmHg 65%
    20:00 +22°C° 0 mm 1 m/s 691 mmHg 70%
    21:00 +20°C° 0 mm 1 m/s 691 mmHg 75%
    22:00 +19°C° 0 mm 1 m/s 691 mmHg 76%
    23:00 +19°C° 0 mm 1 m/s 691 mmHg 78%

    5 Juin, Vendredi

    Heure Température Précipitation Vent Pression Humidité
    00:00 +18°C° 0 mm 1 m/s 691 mmHg 79%
    01:00 +18°C° 0 mm 1 m/s 691 mmHg 77%
    02:00 +18°C° 0 mm 1 m/s 691 mmHg 75%
    03:00 +18°C° 0 mm 1 m/s 691 mmHg 73%
    04:00 +18°C° 0 mm 1 m/s 692 mmHg 72%
    05:00 +19°C° 0 mm 1 m/s 692 mmHg 72%
    06:00 +20°C° 0 mm 1 m/s 693 mmHg 71%
    07:00 +21°C° 0 mm 1 m/s 693 mmHg 68%
    08:00 +23°C° 0 mm 1 m/s 693 mmHg 65%
    09:00 +24°C° 0 mm 2 m/s 694 mmHg 61%
    10:00 +25°C° 0.1 mm 2 m/s 694 mmHg 59%
    11:00 +26°C° 0.1 mm 2 m/s 694 mmHg 57%
    12:00 +27°C° 0.1 mm 2 m/s 694 mmHg 55%
    13:00 +27°C° 0.2 mm 2 m/s 693 mmHg 55%
    14:00 +27°C° 0.2 mm 2 m/s 693 mmHg 54%
    15:00 +28°C° 0.2 mm 2 m/s 693 mmHg 54%
    16:00 +27°C° 0.2 mm 2 m/s 693 mmHg 57%
    17:00 +26°C° 0.2 mm 2 m/s 693 mmHg 59%
    18:00 +26°C° 0.2 mm 2 m/s 693 mmHg 62%
    19:00 +24°C° 0.1 mm 2 m/s 693 mmHg 67%
    20:00 +22°C° 0.1 mm 1 m/s 694 mmHg 72%
    21:00 +20°C° 0.1 mm 1 m/s 694 mmHg 77%
    22:00 +19°C° 0.5 mm 1 m/s 694 mmHg 80%
    23:00 +18°C° 0.5 mm 1 m/s 694 mmHg 83%

    6 Juin, Samedi

    Heure Température Précipitation Vent Pression Humidité
    00:00 +18°C° 0.5 mm 1 m/s 695 mmHg 85%
    01:00 +16°C° 0.2 mm 1 m/s 695 mmHg 85%
    02:00 +16°C° 0.2 mm 1 m/s 695 mmHg 86%
    03:00 +16°C° 0.2 mm 1 m/s 695 mmHg 86%
    04:00 +18°C° 0.1 mm 1 m/s 695 mmHg 82%
    05:00 +18°C° 0.1 mm 1 m/s 696 mmHg 79%
    06:00 +19°C° 0.1 mm 1 m/s 696 mmHg 76%
    07:00 +20°C° 0 mm 1 m/s 696 mmHg 73%
    08:00 +20°C° 0 mm 1 m/s 696 mmHg 69%
    09:00 +20°C° 0 mm 2 m/s 696 mmHg 66%
    10:00 +21°C° 0 mm 2 m/s 696 mmHg 63%
    11:00 +22°C° 0 mm 3 m/s 696 mmHg 61%
    12:00 +24°C° 0 mm 3 m/s 696 mmHg 59%
    13:00 +24°C° 0.1 mm 3 m/s 696 mmHg 60%
    14:00 +24°C° 0.1 mm 3 m/s 695 mmHg 62%
    15:00 +24°C° 0.1 mm 3 m/s 695 mmHg 63%
    16:00 +22°C° 0.1 mm 3 m/s 695 mmHg 66%
    17:00 +21°C° 0.1 mm 2 m/s 695 mmHg 69%
    18:00 +21°C° 0.1 mm 2 m/s 695 mmHg 71%
    19:00 +21°C° 0.2 mm 1 m/s 695 mmHg 74%
    20:00 +20°C° 0.2 mm 1 m/s 695 mmHg 77%
    21:00 +19°C° 0.2 mm 1 m/s 696 mmHg 80%
    22:00 +19°C° 0.1 mm 1 m/s 696 mmHg 81%
    23:00 +18°C° 0.1 mm 1 m/s 695 mmHg 81%
    Voir plus